DW8673 Jerrabomberra AU current weather conditions

sailwx.info

Wind from 125 at 3 knots gusting 6

Air temperature 12.8° C
Dewpoint 1.7° C

Last reported at 2015-Jan-29 11:43 UTC.
Time now 2015-Jan-29 12:21 UTC

Location: S 35°23' E 149°12'.
View on Google Maps.

See reports from other nearby stations

  
Tides and Currents Weather Stations Pressure Air Temp Water Temp Dewpoint Dewpoint Depression Visibility Wind Speed Wind Dir Waves Ship Positions
date/time (UTC)wind fromknots sea level pressurealtimeterstation pressurevisibilityair tempwater tempwave heightnotes
2015-Jan-29 11:43 125 3 gusting 6 12.8
2015-Jan-29 11:33 127 1 gusting 5 12.8
2015-Jan-29 11:13 159 1 gusting 4 13.3
2015-Jan-29 11:03 300 1 gusting 6 13.3
2015-Jan-29 10:43 136 1 gusting 6 13.3
2015-Jan-29 10:33 209 4 gusting 8 13.9
2015-Jan-29 10:13 151 2 gusting 13 14.4
2015-Jan-29 10:03 187 3 gusting 7 14.4
2015-Jan-29 09:43 177 2 gusting 7 14.4
2015-Jan-29 09:33 133 2 gusting 6 14.4
2015-Jan-29 09:13 147 2 gusting 8 15.0
2015-Jan-29 09:03 059 4 gusting 11 15.6
2015-Jan-29 08:43 188 2 gusting 6 18.3
2015-Jan-29 08:33 086 3 gusting 11 18.3
2015-Jan-29 08:13 110 3 gusting 10 20.0
2015-Jan-29 08:03 095 4 gusting 11 20.6
2015-Jan-29 07:43 101 5 gusting 12 21.1
2015-Jan-29 07:33 148 6 gusting 13 21.1
2015-Jan-29 07:13 142 6 gusting 11 21.7
2015-Jan-29 07:03 238 3 gusting 11 22.2
2015-Jan-29 05:43 094 1 gusting 8 24.4
2015-Jan-29 05:33 032 2 gusting 7 25.0
2015-Jan-29 05:13 139 4 gusting 8 24.4
2015-Jan-29 05:03 039 2 gusting 11 25.0
2015-Jan-29 04:43 113 3 gusting 7 22.8
2015-Jan-29 04:13 230 1 gusting 10 24.4
2015-Jan-29 04:03 052 1 gusting 8 22.8
2015-Jan-29 03:43 216 2 gusting 6 25.6
2015-Jan-29 03:33 212 2 gusting 6 24.4
2015-Jan-29 03:13 206 1 gusting 5 22.8
2015-Jan-29 03:03 132 2 gusting 8 22.8
2015-Jan-29 02:43 179 4 gusting 7 23.9
2015-Jan-29 02:33 213 3 gusting 7 23.3
2015-Jan-29 02:13 145 2 gusting 10 23.3
2015-Jan-29 02:03 262 2 gusting 6 21.1
2015-Jan-29 01:43 112 4 gusting 7 19.4
2015-Jan-29 01:33 156 1 gusting 7 19.4
2015-Jan-29 01:13 098 2 gusting 7 19.4
2015-Jan-29 01:03 153 2 gusting 11 19.4
2015-Jan-29 00:43 170 5 gusting 7 19.4
2015-Jan-29 00:33 318 2 gusting 6 21.7
2015-Jan-29 00:13 108 2 gusting 5 18.9
2015-Jan-29 00:03 259 1 gusting 8 18.3
2015-Jan-28 23:43 177 4 gusting 7 20.6
2015-Jan-28 23:33 161 3 gusting 10 20.0
2015-Jan-28 23:13 159 4 gusting 11 18.9
2015-Jan-28 23:03 164 5 gusting 13 18.3
2015-Jan-28 22:43 178 2 gusting 8 17.8
2015-Jan-28 22:33 110 4 gusting 7 17.2
2015-Jan-28 22:13 139 5 gusting 10 16.7
2015-Jan-28 22:03 211 4 gusting 13 16.1
2015-Jan-28 21:43 203 4 gusting 10 16.1
2015-Jan-28 21:33 181 2 gusting 13 15.6
2015-Jan-28 21:13 139 4 gusting 8 15.0
2015-Jan-28 21:03 124 4 gusting 10 14.4
2015-Jan-28 20:43 114 5 gusting 8 13.9
2015-Jan-28 20:33 107 2 gusting 6 13.9
2015-Jan-28 20:13 109 3 gusting 6 11.7
2015-Jan-28 20:03 141 1 gusting 7 11.1
2015-Jan-28 19:43 359 1 gusting 6 10.6
2015-Jan-28 19:33 210 2 gusting 8 10.6
2015-Jan-28 19:13 116 3 gusting 7 10.6
2015-Jan-28 19:03 162 3 gusting 10 10.6
2015-Jan-28 18:43 218 2 gusting 5 10.6
2015-Jan-28 18:33 235 1 gusting 6 11.1
2015-Jan-28 18:13 103 0 gusting 1 10.6
2015-Jan-28 18:03 269 0 gusting 6 10.6
2015-Jan-28 17:43 133 2 gusting 5 10.6
2015-Jan-28 17:33 121 1 gusting 8 11.1
2015-Jan-28 17:13 155 4 gusting 7 11.1
2015-Jan-28 17:03 099 5 gusting 7 11.7
2015-Jan-28 16:43 143 3 gusting 7 11.7
2015-Jan-28 16:33 160 4 gusting 13 11.7
2015-Jan-28 16:13 113 2 gusting 6 12.2
2015-Jan-28 16:03 155 3 gusting 10 12.2
2015-Jan-28 15:43 131 4 gusting 10 12.2
2015-Jan-28 15:33 165 4 gusting 8 12.2
2015-Jan-28 15:13 153 4 gusting 8 12.2
2015-Jan-28 15:03 183 4 gusting 10 12.2
2015-Jan-28 14:43 117 1 gusting 6 12.8
2015-Jan-28 14:33 167 1 gusting 6 12.8
2015-Jan-28 14:13 191 2 gusting 5 12.8
2015-Jan-28 14:03 104 0 gusting 4 12.8
2015-Jan-28 13:43 163 1 gusting 2 12.8
2015-Jan-28 13:33 164 0 gusting 2 12.8
2015-Jan-28 13:13 110 0 gusting 5 13.3
2015-Jan-28 13:03 114 1 gusting 5 13.9
2015-Jan-28 12:43 082 1 gusting 2 13.9
2015-Jan-28 12:33 136 0 gusting 5 13.9
2015-Jan-28 12:13 092 0 gusting 5 13.9
2015-Jan-28 12:03 112 0 gusting 6 13.9
2015-Jan-28 11:43 126 2 gusting 6 13.9
2015-Jan-28 11:33 115 1 gusting 5 14.4
2015-Jan-28 11:13 113 1 gusting 5 14.4
2015-Jan-28 11:03 146 2 gusting 5 14.4
2015-Jan-28 10:43 141 2 gusting 6 14.4
2015-Jan-28 10:33 126 2 gusting 7 15.0
2015-Jan-28 10:13 097 1 gusting 5 15.6
2015-Jan-28 10:03 125 1 gusting 6 15.6
2015-Jan-28 09:43 134 1 gusting 6 15.6
2015-Jan-28 09:33 103 2 gusting 6 15.6
2015-Jan-28 09:13 125 3 gusting 6 16.1
2015-Jan-28 09:03 147 2 gusting 6 17.2
2015-Jan-28 08:43 117 2 gusting 5 18.3
2015-Jan-28 08:33 110 2 gusting 6 17.2
2015-Jan-28 08:13 090 1 gusting 7 17.2
2015-Jan-28 08:03 160 4 gusting 8 18.3
2015-Jan-28 07:43 093 2 gusting 11 21.7
2015-Jan-28 07:33 100 3 gusting 7 21.7
2015-Jan-28 07:13 203 2 gusting 6 20.6
2015-Jan-28 07:03 113 2 gusting 10 20.6
2015-Jan-28 05:43 097 5 gusting 7 22.2
2015-Jan-28 05:33 090 4 gusting 8 21.7
2015-Jan-28 05:13 137 5 gusting 11 22.8
2015-Jan-28 05:03 100 5 gusting 13 22.8
2015-Jan-28 04:43 119 1 gusting 5 25.6
2015-Jan-28 04:33 114 1 gusting 6 25.0
2015-Jan-28 04:13 132 1 gusting 6 26.7
2015-Jan-28 04:03 088 1 gusting 6 25.0
2015-Jan-28 03:43 104 1 gusting 6 26.1
2015-Jan-28 03:33 153 2 gusting 6 24.4
2015-Jan-28 03:13 111 2 gusting 7 25.0
2015-Jan-28 03:03 077 0 gusting 5 24.4
2015-Jan-28 02:43 096 2 gusting 5 23.3
2015-Jan-28 02:33 110 1 gusting 5 24.4
2015-Jan-28 02:13 119 1 gusting 4 22.8
2015-Jan-28 02:03 278 1 gusting 4 21.7
2015-Jan-28 01:43 116 1 gusting 5 21.7
2015-Jan-28 01:33 127 1 gusting 4 21.7
2015-Jan-28 01:13 106 1 gusting 5 21.7
2015-Jan-28 01:03 142 1 gusting 6 22.8
2015-Jan-27 23:03 175 0 gusting 6 20.6
2015-Jan-27 22:13 124 1 gusting 6 20.6
2015-Jan-27 22:03 137 3 gusting 6 20.0
2015-Jan-27 21:43 066 0 gusting 6 20.0
2015-Jan-27 21:33 118 2 gusting 6 20.0
2015-Jan-27 21:13 123 1 gusting 7 18.9
2015-Jan-27 21:03 114 1 gusting 6 18.3
2015-Jan-27 20:43 107 2 gusting 8 15.6
2015-Jan-27 20:33 094 2 gusting 5 15.0
2015-Jan-27 20:13 140 2 gusting 6 15.0
2015-Jan-27 20:03 117 4 gusting 5 14.4
2015-Jan-27 19:43 115 0 gusting 1 13.9
2015-Jan-27 19:33 090 13.9
2015-Jan-27 19:13 089 0 gusting 1 13.9
2015-Jan-27 19:03 098 1 gusting 2 14.4
2015-Jan-27 18:43 261 14.4
2015-Jan-27 18:33 163 1 gusting 4 14.4
2015-Jan-27 18:13 260 14.4
2015-Jan-27 18:03 138 0 gusting 5 14.4
2015-Jan-27 17:43 129 0 gusting 1 14.4
2015-Jan-27 17:33 068 14.4
2015-Jan-27 17:13 112 0 gusting 1 14.4
2015-Jan-27 17:03 276 0 gusting 1 14.4
2015-Jan-27 16:43 300 14.4
2015-Jan-27 16:33 018 1 gusting 6 14.4
2015-Jan-27 16:13 124 2 gusting 5 14.4
2015-Jan-27 16:03 076 1 gusting 8 14.4
2015-Jan-27 15:43 107 2 gusting 7 14.4
2015-Jan-27 15:33 139 1 gusting 4 14.4
2015-Jan-27 15:13 133 1 gusting 4 14.4
2015-Jan-27 15:03 120 1 gusting 5 14.4
2015-Jan-27 14:43 267 0 gusting 2 14.4
2015-Jan-27 14:33 164 1 gusting 4 14.4
2015-Jan-27 14:13 258 1 gusting 2 14.4
2015-Jan-27 14:03 291 0 gusting 4 14.4
2015-Jan-27 13:43 292 15.0
2015-Jan-27 13:33 249 0 gusting 5 15.0
2015-Jan-27 13:13 234 0 gusting 2 15.0
2015-Jan-27 13:03 124 1 gusting 6 15.0
2015-Jan-27 12:43 103 1 gusting 6 15.0
2015-Jan-27 12:33 195 1 gusting 5 15.0
2015-Jan-27 12:13 134 0 gusting 2 15.0
2015-Jan-27 12:03 119 15.0